Showing default

IRIDIUM 24, 25105

Orbit data source: Space-Track

IRIDIUM 24, 25105 is a payload satellite owned by Iridium (US) in LEO that was launched on Sat, 20 Dec 1997 UTC via a DELTA 7920-10C launch vehicle from the Air Force Western Test Range (AFWTR). Payload-class satellites include a variety of spacecraft equipped with specific instruments for various scientific and technological missions. These include communications satellites like Starlink; space stations such as the ISS; scientific satellites like the Hubble; Earth observation satellites from companies like Planet Labs, Umbra, and HawkEye 360; GPS; miniature CubeSats for education and research; and military/defense satellites.

Loading next visibility...
Identifier
25105, 1997-082B
Orbit
LEO
Country
Flag of USUS
Related business
Manufacturer
MOTO/LMMS
Mission
Non-operational Commercial Communications
Bus & Motor
LM700, Unknown motor
Mass
662 kg wet, 556 kg dry
Launch date (UTC)
1997-12-20 (28 years ago)
Launch vehicle
DELTA 7920-10C
Launch site
Air Force Western Test Range (AFWTR)
Object type
Payload
Rocket body
Debris
Shape & HBR
Box + 2 Pan, 4.2 m
Radar Cross Section
5.666 m², Large (>1 m²)

Expand to show TLE details & history
Last TLE update: 20 hours ago

TLE from 20 hours ago
0 IRIDIUM 24
1 25105U 97082B   25260.94088688  .00000535  00000-0  15645-3 0  9992
2 25105  86.3907  40.9277 0013125 125.7208 234.5215 14.42185969456583
Epoch: 2025-09-17T22:34Z
TLE epoch observation values (Epoch: 2025-09-17T22:34:52.626Z)
Latitude
-0.00006°
Longitude
65.0988°
Altitude
759.788 km
Speed
7.472 km/s
True Right ascension
02h 43m 42s
True Declination
0° 00' 00"
Sunlit
Object was in full shadow at epoch
Visualization orbit readout
Latitude
Unknown
Longitude
Unknown
Altitude
Unknown
Speed
Unknown
Apparent Right ascension
Unknown
Apparent Declination
Unknown
Sunlit
N/A
Visualization observer readout
Local Sidereal Time
11:02:57
Azimuth
Unknown
Elevation
Unknown
Doppler factor
Unknown
Orbital elements
Apogee altitude
757.592 km
Perigee altitude
738.885 km
Semi-major axis
7,126.375 km
Eccentricity
0.00131
Inclination
86.3907°
RAAN
40.9277°
Arg. of periapsis
125.7208°
True anomaly
234.39914°
Mean anomaly
234.5215°
Eccentric anomaly
234.46031°
Mean motion
3.60778 °/min
Orbital period
99.78 mins
BSTAR
0.00015645
Loading maneuver chart data...
Computing Atmospheric mass density...

Documentation

Showing up to 5 results
|